owner,sensor,date,latitude,longitude,vertical_datum,wind_speed,wind_to_direction,wind_speed_of_gust,qcFlag 
LOOP,urn:ioos:station:wmo:lopl1:1,2013-01-01T00:09:00Z,28.8850,-90.0250,10.0,5.9,159.0,6.9,'11111222,11111222,11111222' 
LOOP,urn:ioos:station:wmo:lopl1:1,2013-01-01T00:24:00Z,28.8850,-90.0250,10.0,5.3,143.0,6.1,'11111222,11111222,11111222' 
LOOP,urn:ioos:station:wmo:lopl1:1,2013-01-01T00:44:00Z,28.8850,-90.0250,10.0,5.7,148.0,6.4,'11111222,11111222,11111222' 
LOOP,urn:ioos:station:wmo:lopl1:1,2013-01-01T00:59:00Z,28.8850,-90.0250,10.0,5.7,146.0,6.4,'11111222,11111222,11111222' 
LOOP,urn:ioos:station:wmo:lopl1:1,2013-01-01T01:14:00Z,28.8850,-90.0250,10.0,4.2,139.0,4.9,'11111222,11111222,11111222' 
LOOP,urn:ioos:station:wmo:lopl1:1,2013-01-01T01:29:00Z,28.8850,-90.0250,10.0,5.2,139.0,5.8,'11111222,11111222,11111222' 
LOOP,urn:ioos:station:wmo:lopl1:1,2013-01-01T01:44:00Z,28.8850,-90.0250,10.0,5.9,140.0,7.0,'11111222,11111222,11111222' 
LOOP,urn:ioos:station:wmo:lopl1:1,2013-01-01T01:59:00Z,28.8850,-90.0250,10.0,6.4,138.0,7.1,'11111222,11111222,11111222' 
LOOP,urn:ioos:station:wmo:lopl1:1,2013-01-01T02:14:00Z,28.8850,-90.0250,10.0,6.7,141.0,7.1,'11111222,11111222,11111222' 
LOOP,urn:ioos:station:wmo:lopl1:1,2013-01-01T02:29:00Z,28.8850,-90.0250,10.0,6.7,144.0,7.2,'11111222,11111222,11111222' 
LOOP,urn:ioos:station:wmo:lopl1:1,2013-01-01T02:44:00Z,28.8850,-90.0250,10.0,6.8,145.0,7.3,'11111222,11111222,11111222' 
LOOP,urn:ioos:station:wmo:lopl1:1,2013-01-01T02:59:00Z,28.8850,-90.0250,10.0,6.0,153.0,7.0,'11111222,11111222,11111222' 
LOOP,urn:ioos:station:wmo:lopl1:1,2013-01-01T03:14:00Z,28.8850,-90.0250,10.0,6.5,148.0,6.9,'11111222,11111222,11111222' 
LOOP,urn:ioos:station:wmo:lopl1:1,2013-01-01T03:29:00Z,28.8850,-90.0250,10.0,6.1,145.0,6.5,'11111222,11111222,11111222' 
LOOP,urn:ioos:station:wmo:lopl1:1,2013-01-01T03:44:00Z,28.8850,-90.0250,10.0,6.1,150.0,6.4,'11111222,11111222,11111222' 
LOOP,urn:ioos:station:wmo:lopl1:1,2013-01-01T03:59:00Z,28.8850,-90.0250,10.0,6.1,155.0,6.9,'11111222,11111222,11111222' 
LOOP,urn:ioos:station:wmo:lopl1:1,2013-01-01T04:14:00Z,28.8850,-90.0250,10.0,6.4,156.0,7.0,'11111222,11111222,11111222' 
LOOP,urn:ioos:station:wmo:lopl1:1,2013-01-01T04:29:00Z,28.8850,-90.0250,10.0,7.1,163.0,7.7,'11111222,11111222,11111222' 
LOOP,urn:ioos:station:wmo:lopl1:1,2013-01-01T04:44:00Z,28.8850,-90.0250,10.0,6.5,163.0,7.3,'11111222,11111222,11111222' 
LOOP,urn:ioos:station:wmo:lopl1:1,2013-01-01T04:59:00Z,28.8850,-90.0250,10.0,6.7,160.0,7.4,'11111222,11111222,11111222' 
LOOP,urn:ioos:station:wmo:lopl1:1,2013-01-01T05:14:00Z,28.8850,-90.0250,10.0,7.4,156.0,8.4,'11111222,11111222,11111222' 
LOOP,urn:ioos:station:wmo:lopl1:1,2013-01-01T05:29:00Z,28.8850,-90.0250,10.0,7.5,160.0,8.2,'11111222,11111222,11111222' 
LOOP,urn:ioos:station:wmo:lopl1:1,2013-01-01T05:44:00Z,28.8850,-90.0250,10.0,6.5,161.0,7.2,'11111222,11111222,11111222' 
LOOP,urn:ioos:station:wmo:lopl1:1,2013-01-01T05:59:00Z,28.8850,-90.0250,10.0,6.9,159.0,8.1,'11111222,11111222,11111222' 
LOOP,urn:ioos:station:wmo:lopl1:1,2013-01-01T06:19:00Z,28.8850,-90.0250,10.0,6.5,150.0,7.2,'11111222,11111222,11111222' 
LOOP,urn:ioos:station:wmo:lopl1:1,2013-01-01T06:34:00Z,28.8850,-90.0250,10.0,6.5,153.0,7.0,'11111222,11111222,11111222' 
LOOP,urn:ioos:station:wmo:lopl1:1,2013-01-01T06:49:00Z,28.8850,-90.0250,10.0,6.5,157.0,7.1,'11111222,11111222,11111222' 
LOOP,urn:ioos:station:wmo:lopl1:1,2013-01-01T07:04:00Z,28.8850,-90.0250,10.0,5.9,156.0,6.5,'11111222,11111222,11111222' 
LOOP,urn:ioos:station:wmo:lopl1:1,2013-01-01T07:19:00Z,28.8850,-90.0250,10.0,5.6,159.0,6.2,'11111222,11111222,11111222' 
LOOP,urn:ioos:station:wmo:lopl1:1,2013-01-01T07:34:00Z,28.8850,-90.0250,10.0,6.6,160.0,7.1,'11111222,11111222,11111222' 
LOOP,urn:ioos:station:wmo:lopl1:1,2013-01-01T07:49:00Z,28.8850,-90.0250,10.0,6.7,163.0,7.5,'11111222,11111222,11111222' 
LOOP,urn:ioos:station:wmo:lopl1:1,2013-01-01T08:04:00Z,28.8850,-90.0250,10.0,6.5,158.0,7.1,'11111222,11111222,11111222' 
LOOP,urn:ioos:station:wmo:lopl1:1,2013-01-01T08:19:00Z,28.8850,-90.0250,10.0,6.5,160.0,7.0,'11111222,11111222,11111222' 
LOOP,urn:ioos:station:wmo:lopl1:1,2013-01-01T08:34:00Z,28.8850,-90.0250,10.0,6.1,152.0,6.6,'11111222,11111222,11111222' 
LOOP,urn:ioos:station:wmo:lopl1:1,2013-01-01T08:49:00Z,28.8850,-90.0250,10.0,5.9,158.0,6.4,'11111222,11111222,11111222' 
LOOP,urn:ioos:station:wmo:lopl1:1,2013-01-01T09:04:00Z,28.8850,-90.0250,10.0,5.6,163.0,6.4,'11111222,11111222,11111222' 
LOOP,urn:ioos:station:wmo:lopl1:1,2013-01-01T09:19:00Z,28.8850,-90.0250,10.0,5.5,163.0,6.0,'11111222,11111222,11111222' 
LOOP,urn:ioos:station:wmo:lopl1:1,2013-01-01T09:34:00Z,28.8850,-90.0250,10.0,6.1,159.0,6.7,'11111222,11111222,11111222' 
LOOP,urn:ioos:station:wmo:lopl1:1,2013-01-01T09:49:00Z,28.8850,-90.0250,10.0,6.2,161.0,6.7,'11111222,11111222,11111222' 
LOOP,urn:ioos:station:wmo:lopl1:1,2013-01-01T10:04:00Z,28.8850,-90.0250,10.0,5.9,162.0,6.4,'11111222,11111222,11111222' 
LOOP,urn:ioos:station:wmo:lopl1:1,2013-01-01T10:19:00Z,28.8850,-90.0250,10.0,5.9,163.0,6.4,'11111222,11111222,11111222' 
LOOP,urn:ioos:station:wmo:lopl1:1,2013-01-01T10:34:00Z,28.8850,-90.0250,10.0,6.1,162.0,6.3,'11111222,11111222,11111222' 
LOOP,urn:ioos:station:wmo:lopl1:1,2013-01-01T10:49:00Z,28.8850,-90.0250,10.0,6.2,172.0,6.9,'11111222,11111222,11111222' 
LOOP,urn:ioos:station:wmo:lopl1:1,2013-01-01T11:04:00Z,28.8850,-90.0250,10.0,5.8,177.0,6.4,'11111222,11111222,11111222' 
LOOP,urn:ioos:station:wmo:lopl1:1,2013-01-01T11:24:00Z,28.8850,-90.0250,10.0,5.8,181.0,6.2,'11111222,11111222,11111222' 
LOOP,urn:ioos:station:wmo:lopl1:1,2013-01-01T11:39:00Z,28.8850,-90.0250,10.0,5.1,185.0,5.6,'11111222,11111222,11111222' 
LOOP,urn:ioos:station:wmo:lopl1:1,2013-01-01T11:54:00Z,28.8850,-90.0250,10.0,4.9,190.0,5.3,'11111222,11111222,11111222' 
LOOP,urn:ioos:station:wmo:lopl1:1,2013-01-01T12:09:00Z,28.8850,-90.0250,10.0,4.6,202.0,4.9,'11111222,11111222,11111222' 
LOOP,urn:ioos:station:wmo:lopl1:1,2013-01-01T12:24:00Z,28.8850,-90.0250,10.0,5.0,195.0,5.5,'11111222,11111222,11111222' 
LOOP,urn:ioos:station:wmo:lopl1:1,2013-01-01T12:39:00Z,28.8850,-90.0250,10.0,5.5,189.0,6.0,'11111222,11111222,11111222' 
LOOP,urn:ioos:station:wmo:lopl1:1,2013-01-01T12:54:00Z,28.8850,-90.0250,10.0,6.8,185.0,8.1,'11111222,11111222,11111222' 
LOOP,urn:ioos:station:wmo:lopl1:1,2013-01-01T13:09:00Z,28.8850,-90.0250,10.0,6.6,194.0,7.2,'11111222,11111222,11111222' 
LOOP,urn:ioos:station:wmo:lopl1:1,2013-01-01T13:24:00Z,28.8850,-90.0250,10.0,7.1,191.0,8.3,'11111222,11111222,11111222' 
LOOP,urn:ioos:station:wmo:lopl1:1,2013-01-01T13:39:00Z,28.8850,-90.0250,10.0,7.7,185.0,8.3,'11111222,11111222,11111222' 
LOOP,urn:ioos:station:wmo:lopl1:1,2013-01-01T13:54:00Z,28.8850,-90.0250,10.0,7.8,191.0,8.7,'11111222,11111222,11111222' 
LOOP,urn:ioos:station:wmo:lopl1:1,2013-01-01T14:09:00Z,28.8850,-90.0250,10.0,8.7,186.0,9.8,'11111222,11111222,11111222' 
LOOP,urn:ioos:station:wmo:lopl1:1,2013-01-01T14:24:00Z,28.8850,-90.0250,10.0,8.4,188.0,9.5,'11111222,11111222,11111222' 
LOOP,urn:ioos:station:wmo:lopl1:1,2013-01-01T14:39:00Z,28.8850,-90.0250,10.0,8.1,195.0,9.2,'11111222,11111222,11111222' 
LOOP,urn:ioos:station:wmo:lopl1:1,2013-01-01T14:54:00Z,28.8850,-90.0250,10.0,8.0,196.0,8.6,'11111222,11111222,11111222' 
LOOP,urn:ioos:station:wmo:lopl1:1,2013-01-01T15:09:00Z,28.8850,-90.0250,10.0,7.2,196.0,7.6,'11111222,11111222,11111222' 
LOOP,urn:ioos:station:wmo:lopl1:1,2013-01-01T15:24:00Z,28.8850,-90.0250,10.0,7.4,196.0,8.3,'11111222,11111222,11111222' 
LOOP,urn:ioos:station:wmo:lopl1:1,2013-01-01T15:39:00Z,28.8850,-90.0250,10.0,8.5,196.0,9.1,'11111222,11111222,11111222' 
LOOP,urn:ioos:station:wmo:lopl1:1,2013-01-01T15:54:00Z,28.8850,-90.0250,10.0,8.7,197.0,9.5,'11111222,11111222,11111222' 
LOOP,urn:ioos:station:wmo:lopl1:1,2013-01-01T16:09:00Z,28.8850,-90.0250,10.0,8.5,197.0,9.2,'11111222,11111222,11111222' 
LOOP,urn:ioos:station:wmo:lopl1:1,2013-01-01T16:29:00Z,28.8850,-90.0250,10.0,9.5,199.0,10.0,'11111222,11111222,11111222' 
LOOP,urn:ioos:station:wmo:lopl1:1,2013-01-01T16:44:00Z,28.8850,-90.0250,10.0,10.5,196.0,12.1,'11111222,11111222,11111222' 
LOOP,urn:ioos:station:wmo:lopl1:1,2013-01-01T16:59:00Z,28.8850,-90.0250,10.0,11.1,190.0,11.9,'11111222,11111222,11111222' 
LOOP,urn:ioos:station:wmo:lopl1:1,2013-01-01T17:14:00Z,28.8850,-90.0250,10.0,10.6,194.0,11.4,'11111222,11111222,11111222' 
LOOP,urn:ioos:station:wmo:lopl1:1,2013-01-01T17:29:00Z,28.8850,-90.0250,10.0,10.9,192.0,11.8,'11111222,11111222,11111222' 
LOOP,urn:ioos:station:wmo:lopl1:1,2013-01-01T17:44:00Z,28.8850,-90.0250,10.0,10.9,188.0,11.7,'11111222,11111222,11111222' 
LOOP,urn:ioos:station:wmo:lopl1:1,2013-01-01T17:59:00Z,28.8850,-90.0250,10.0,10.6,190.0,11.7,'11111222,11111222,11111222' 
LOOP,urn:ioos:station:wmo:lopl1:1,2013-01-01T18:14:00Z,28.8850,-90.0250,10.0,10.5,189.0,11.5,'11111222,11111222,11111222' 
LOOP,urn:ioos:station:wmo:lopl1:1,2013-01-01T18:59:00Z,28.8850,-90.0250,10.0,11.4,195.0,13.0,'11111222,11111222,11111222' 
LOOP,urn:ioos:station:wmo:lopl1:1,2013-01-01T19:14:00Z,28.8850,-90.0250,10.0,12.0,196.0,13.2,'11111222,11111222,11111222' 
LOOP,urn:ioos:station:wmo:lopl1:1,2013-01-01T19:29:00Z,28.8850,-90.0250,10.0,13.5,194.0,14.9,'11111222,11111222,11111222' 
LOOP,urn:ioos:station:wmo:lopl1:1,2013-01-01T19:44:00Z,28.8850,-90.0250,10.0,13.3,197.0,14.6,'11111222,11111222,11111222' 
LOOP,urn:ioos:station:wmo:lopl1:1,2013-01-01T19:59:00Z,28.8850,-90.0250,10.0,12.6,197.0,13.9,'11111222,11111222,11111222' 
LOOP,urn:ioos:station:wmo:lopl1:1,2013-01-01T20:14:00Z,28.8850,-90.0250,10.0,12.4,197.0,13.6,'11111222,11111222,11111222' 
LOOP,urn:ioos:station:wmo:lopl1:1,2013-01-01T20:29:00Z,28.8850,-90.0250,10.0,12.1,202.0,13.8,'11111222,11111222,11111222' 
LOOP,urn:ioos:station:wmo:lopl1:1,2013-01-01T20:44:00Z,28.8850,-90.0250,10.0,11.6,201.0,13.2,'11111222,11111222,11111222' 
LOOP,urn:ioos:station:wmo:lopl1:1,2013-01-01T20:59:00Z,28.8850,-90.0250,10.0,10.5,204.0,11.7,'11111222,11111222,11111222' 
LOOP,urn:ioos:station:wmo:lopl1:1,2013-01-01T21:14:00Z,28.8850,-90.0250,10.0,10.4,205.0,11.5,'11111222,11111222,11111222' 
LOOP,urn:ioos:station:wmo:lopl1:1,2013-01-01T21:29:00Z,28.8850,-90.0250,10.0,10.3,206.0,11.1,'11111222,11111222,11111222' 
LOOP,urn:ioos:station:wmo:lopl1:1,2013-01-01T21:44:00Z,28.8850,-90.0250,10.0,10.0,205.0,10.9,'11111222,11111222,11111222' 
LOOP,urn:ioos:station:wmo:lopl1:1,2013-01-01T22:04:00Z,28.8850,-90.0250,10.0,9.9,206.0,10.4,'11111222,11111222,11111222' 
LOOP,urn:ioos:station:wmo:lopl1:1,2013-01-01T22:19:00Z,28.8850,-90.0250,10.0,9.5,207.0,10.4,'11111222,11111222,11111222' 
LOOP,urn:ioos:station:wmo:lopl1:1,2013-01-01T22:34:00Z,28.8850,-90.0250,10.0,9.5,209.0,10.4,'11111222,11111222,11111222' 
LOOP,urn:ioos:station:wmo:lopl1:1,2013-01-01T22:49:00Z,28.8850,-90.0250,10.0,9.5,207.0,10.4,'11111222,11111222,11111222' 
LOOP,urn:ioos:station:wmo:lopl1:1,2013-01-01T23:04:00Z,28.8850,-90.0250,10.0,9.9,207.0,10.7,'11111222,11111222,11111222' 
LOOP,urn:ioos:station:wmo:lopl1:1,2013-01-01T23:19:00Z,28.8850,-90.0250,10.0,9.3,206.0,10.3,'11111222,11111222,11111222' 
LOOP,urn:ioos:station:wmo:lopl1:1,2013-01-01T23:34:00Z,28.8850,-90.0250,10.0,9.6,205.0,10.6,'11111222,11111222,11111222' 
LOOP,urn:ioos:station:wmo:lopl1:1,2013-01-01T23:49:00Z,28.8850,-90.0250,10.0,9.6,208.0,10.4,'11111222,11111222,11111222' 
LOOP,urn:ioos:station:wmo:lopl1:1,2013-01-02T00:04:00Z,28.8850,-90.0250,10.0,9.4,208.0,10.6,'11111222,11111222,11111222' 
LOOP,urn:ioos:station:wmo:lopl1:1,2013-01-02T00:19:00Z,28.8850,-90.0250,10.0,8.9,213.0,9.7,'11111222,11111222,11111222' 
LOOP,urn:ioos:station:wmo:lopl1:1,2013-01-02T00:34:00Z,28.8850,-90.0250,10.0,9.3,209.0,10.2,'11111222,11111222,11111222' 
LOOP,urn:ioos:station:wmo:lopl1:1,2013-01-02T00:49:00Z,28.8850,-90.0250,10.0,8.7,209.0,9.6,'11111222,11111222,11111222' 
LOOP,urn:ioos:station:wmo:lopl1:1,2013-01-02T01:04:00Z,28.8850,-90.0250,10.0,8.7,208.0,9.6,'11111222,11111222,11111222' 
LOOP,urn:ioos:station:wmo:lopl1:1,2013-01-02T01:19:00Z,28.8850,-90.0250,10.0,7.8,216.0,8.7,'11111222,11111222,11111222' 
LOOP,urn:ioos:station:wmo:lopl1:1,2013-01-02T01:34:00Z,28.8850,-90.0250,10.0,9.8,266.0,10.5,'11111222,11111222,11111222' 
LOOP,urn:ioos:station:wmo:lopl1:1,2013-01-02T01:49:00Z,28.8850,-90.0250,10.0,9.6,281.0,11.0,'11111222,11111222,11111222' 
LOOP,urn:ioos:station:wmo:lopl1:1,2013-01-02T02:04:00Z,28.8850,-90.0250,10.0,8.8,303.0,10.6,'11111222,11111222,11111222' 
LOOP,urn:ioos:station:wmo:lopl1:1,2013-01-02T02:19:00Z,28.8850,-90.0250,10.0,8.4,306.0,10.5,'11111222,11111222,11111222' 
LOOP,urn:ioos:station:wmo:lopl1:1,2013-01-02T02:34:00Z,28.8850,-90.0250,10.0,9.3,315.0,11.1,'11111222,11111222,11111222' 
LOOP,urn:ioos:station:wmo:lopl1:1,2013-01-02T02:49:00Z,28.8850,-90.0250,10.0,8.4,342.0,10.9,'11111222,11111222,11111222' 
LOOP,urn:ioos:station:wmo:lopl1:1,2013-01-02T03:04:00Z,28.8850,-90.0250,10.0,10.8,349.0,14.2,'11111222,11111222,11111222' 
LOOP,urn:ioos:station:wmo:lopl1:1,2013-01-02T03:19:00Z,28.8850,-90.0250,10.0,10.9,346.0,13.0,'11111222,11111222,11111222' 
LOOP,urn:ioos:station:wmo:lopl1:1,2013-01-02T03:34:00Z,28.8850,-90.0250,10.0,10.8,344.0,13.5,'11111222,11111222,11111222' 
LOOP,urn:ioos:station:wmo:lopl1:1,2013-01-02T03:49:00Z,28.8850,-90.0250,10.0,12.2,357.0,14.5,'11111222,11111222,11111222' 
LOOP,urn:ioos:station:wmo:lopl1:1,2013-01-02T04:09:00Z,28.8850,-90.0250,10.0,11.6,355.0,14.1,'11111222,11111222,11111222' 
LOOP,urn:ioos:station:wmo:lopl1:1,2013-01-02T04:24:00Z,28.8850,-90.0250,10.0,12.1,5.0,13.9,'11111222,11111222,11111222' 
LOOP,urn:ioos:station:wmo:lopl1:1,2013-01-02T04:39:00Z,28.8850,-90.0250,10.0,12.5,353.0,14.2,'11111222,11111222,11111222' 
LOOP,urn:ioos:station:wmo:lopl1:1,2013-01-02T04:54:00Z,28.8850,-90.0250,10.0,11.3,358.0,13.9,'11111222,11111222,11111222' 
LOOP,urn:ioos:station:wmo:lopl1:1,2013-01-02T05:09:00Z,28.8850,-90.0250,10.0,11.9,8.0,13.6,'11111222,11111222,11111222' 
LOOP,urn:ioos:station:wmo:lopl1:1,2013-01-02T05:24:00Z,28.8850,-90.0250,10.0,11.3,5.0,13.0,'11111222,11111222,11111222' 
LOOP,urn:ioos:station:wmo:lopl1:1,2013-01-02T05:39:00Z,28.8850,-90.0250,10.0,10.5,4.0,12.9,'11111222,11111222,11111222' 
LOOP,urn:ioos:station:wmo:lopl1:1,2013-01-02T05:54:00Z,28.8850,-90.0250,10.0,10.6,8.0,12.0,'11111222,11111222,11111222' 
LOOP,urn:ioos:station:wmo:lopl1:1,2013-01-02T06:09:00Z,28.8850,-90.0250,10.0,10.9,8.0,12.3,'11111222,11111222,11111222' 
LOOP,urn:ioos:station:wmo:lopl1:1,2013-01-02T06:24:00Z,28.8850,-90.0250,10.0,10.2,6.0,12.0,'11111222,11111222,11111222' 
LOOP,urn:ioos:station:wmo:lopl1:1,2013-01-02T06:39:00Z,28.8850,-90.0250,10.0,9.8,6.0,11.9,'11111222,11111222,11111222' 
LOOP,urn:ioos:station:wmo:lopl1:1,2013-01-02T06:54:00Z,28.8850,-90.0250,10.0,10.6,5.0,11.9,'11111222,11111222,11111222' 
LOOP,urn:ioos:station:wmo:lopl1:1,2013-01-02T07:09:00Z,28.8850,-90.0250,10.0,11.0,355.0,13.3,'11111222,11111222,11111222' 
LOOP,urn:ioos:station:wmo:lopl1:1,2013-01-02T07:24:00Z,28.8850,-90.0250,10.0,10.6,8.0,12.0,'11111222,11111222,11111222' 
LOOP,urn:ioos:station:wmo:lopl1:1,2013-01-02T07:39:00Z,28.8850,-90.0250,10.0,10.7,14.0,12.4,'11111222,11111222,11111222' 
LOOP,urn:ioos:station:wmo:lopl1:1,2013-01-02T07:54:00Z,28.8850,-90.0250,10.0,11.2,356.0,13.3,'11111222,11111222,11111222' 
LOOP,urn:ioos:station:wmo:lopl1:1,2013-01-02T08:09:00Z,28.8850,-90.0250,10.0,11.7,5.0,14.5,'11111222,11111222,11111222' 
LOOP,urn:ioos:station:wmo:lopl1:1,2013-01-02T08:24:00Z,28.8850,-90.0250,10.0,12.2,10.0,13.8,'11111222,11111222,11111222' 
LOOP,urn:ioos:station:wmo:lopl1:1,2013-01-02T08:39:00Z,28.8850,-90.0250,10.0,11.6,15.0,13.6,'11111222,11111222,11111222' 
LOOP,urn:ioos:station:wmo:lopl1:1,2013-01-02T08:54:00Z,28.8850,-90.0250,10.0,12.0,1.0,13.6,'11111222,11111222,11111222' 
LOOP,urn:ioos:station:wmo:lopl1:1,2013-01-02T09:09:00Z,28.8850,-90.0250,10.0,12.2,1.0,13.7,'11111222,11111222,11111222' 
LOOP,urn:ioos:station:wmo:lopl1:1,2013-01-02T09:29:00Z,28.8850,-90.0250,10.0,12.5,8.0,14.5,'11111222,11111222,11111222' 
LOOP,urn:ioos:station:wmo:lopl1:1,2013-01-02T09:44:00Z,28.8850,-90.0250,10.0,12.2,9.0,14.4,'11111222,11111222,11111222' 
LOOP,urn:ioos:station:wmo:lopl1:1,2013-01-02T09:59:00Z,28.8850,-90.0250,10.0,12.8,13.0,15.2,'11111222,11111222,11111222' 
LOOP,urn:ioos:station:wmo:lopl1:1,2013-01-02T10:14:00Z,28.8850,-90.0250,10.0,11.9,6.0,14.2,'11111222,11111222,11111222' 
LOOP,urn:ioos:station:wmo:lopl1:1,2013-01-02T10:29:00Z,28.8850,-90.0250,10.0,11.5,2.0,13.7,'11111222,11111222,11111222' 
LOOP,urn:ioos:station:wmo:lopl1:1,2013-01-02T10:44:00Z,28.8850,-90.0250,10.0,11.6,9.0,13.5,'11111222,11111222,11111222' 
LOOP,urn:ioos:station:wmo:lopl1:1,2013-01-02T10:59:00Z,28.8850,-90.0250,10.0,11.2,19.0,13.3,'11111222,11111222,11111222' 
LOOP,urn:ioos:station:wmo:lopl1:1,2013-01-02T11:14:00Z,28.8850,-90.0250,10.0,11.6,17.0,12.8,'11111222,11111222,11111222' 
LOOP,urn:ioos:station:wmo:lopl1:1,2013-01-02T11:29:00Z,28.8850,-90.0250,10.0,11.0,18.0,13.1,'11111222,11111222,11111222' 
LOOP,urn:ioos:station:wmo:lopl1:1,2013-01-02T11:44:00Z,28.8850,-90.0250,10.0,10.9,8.0,13.1,'11111222,11111222,11111222' 
LOOP,urn:ioos:station:wmo:lopl1:1,2013-01-02T11:59:00Z,28.8850,-90.0250,10.0,10.6,12.0,13.3,'11111222,11111222,11111222' 
LOOP,urn:ioos:station:wmo:lopl1:1,2013-01-02T12:14:00Z,28.8850,-90.0250,10.0,10.5,11.0,12.3,'11111222,11111222,11111222' 
LOOP,urn:ioos:station:wmo:lopl1:1,2013-01-02T12:29:00Z,28.8850,-90.0250,10.0,11.2,7.0,13.4,'11111222,11111222,11111222' 
LOOP,urn:ioos:station:wmo:lopl1:1,2013-01-02T12:44:00Z,28.8850,-90.0250,10.0,11.5,8.0,13.4,'11111222,11111222,11111222' 
LOOP,urn:ioos:station:wmo:lopl1:1,2013-01-02T12:59:00Z,28.8850,-90.0250,10.0,11.4,348.0,13.6,'11111222,11111222,11111222' 
LOOP,urn:ioos:station:wmo:lopl1:1,2013-01-02T13:14:00Z,28.8850,-90.0250,10.0,12.2,2.0,14.3,'11111222,11111222,11111222' 
LOOP,urn:ioos:station:wmo:lopl1:1,2013-01-02T13:29:00Z,28.8850,-90.0250,10.0,11.4,6.0,13.7,'11111222,11111222,11111222' 
LOOP,urn:ioos:station:wmo:lopl1:1,2013-01-02T13:44:00Z,28.8850,-90.0250,10.0,11.3,15.0,13.9,'11111222,11111222,11111222' 
LOOP,urn:ioos:station:wmo:lopl1:1,2013-01-02T13:59:00Z,28.8850,-90.0250,10.0,12.0,16.0,13.7,'11111222,11111222,11111222' 
LOOP,urn:ioos:station:wmo:lopl1:1,2013-01-02T14:14:00Z,28.8850,-90.0250,10.0,12.2,14.0,15.3,'11111222,11111222,11111222' 
LOOP,urn:ioos:station:wmo:lopl1:1,2013-01-02T14:29:00Z,28.8850,-90.0250,10.0,12.6,3.0,15.1,'11111222,11111222,11111222' 
LOOP,urn:ioos:station:wmo:lopl1:1,2013-01-02T14:44:00Z,28.8850,-90.0250,10.0,13.4,4.0,16.4,'11111222,11111222,11111222' 
LOOP,urn:ioos:station:wmo:lopl1:1,2013-01-02T14:59:00Z,28.8850,-90.0250,10.0,11.9,12.0,14.1,'11111222,11111222,11111222' 
LOOP,urn:ioos:station:wmo:lopl1:1,2013-01-02T15:14:00Z,28.8850,-90.0250,10.0,11.7,10.0,14.8,'11111222,11111222,11111222' 
LOOP,urn:ioos:station:wmo:lopl1:1,2013-01-02T15:34:00Z,28.8850,-90.0250,10.0,12.1,5.0,13.9,'11111222,11111222,11111222' 
LOOP,urn:ioos:station:wmo:lopl1:1,2013-01-02T15:49:00Z,28.8850,-90.0250,10.0,11.2,5.0,13.4,'11111222,11111222,11111222' 
LOOP,urn:ioos:station:wmo:lopl1:1,2013-01-02T16:04:00Z,28.8850,-90.0250,10.0,9.7,13.0,11.1,'11111222,11111222,11111222' 
LOOP,urn:ioos:station:wmo:lopl1:1,2013-01-02T16:19:00Z,28.8850,-90.0250,10.0,10.4,11.0,11.9,'11111222,11111222,11111222' 
LOOP,urn:ioos:station:wmo:lopl1:1,2013-01-02T16:34:00Z,28.8850,-90.0250,10.0,10.6,10.0,13.5,'11111222,11111222,11111222' 
LOOP,urn:ioos:station:wmo:lopl1:1,2013-01-02T16:49:00Z,28.8850,-90.0250,10.0,10.8,11.0,13.1,'11111222,11111222,11111222' 
LOOP,urn:ioos:station:wmo:lopl1:1,2013-01-02T17:04:00Z,28.8850,-90.0250,10.0,11.4,9.0,13.5,'11111222,11111222,11111222' 
LOOP,urn:ioos:station:wmo:lopl1:1,2013-01-02T17:19:00Z,28.8850,-90.0250,10.0,10.5,3.0,12.6,'11111222,11111222,11111222' 
LOOP,urn:ioos:station:wmo:lopl1:1,2013-01-02T17:34:00Z,28.8850,-90.0250,10.0,10.0,15.0,12.0,'11111222,11111222,11111222' 
LOOP,urn:ioos:station:wmo:lopl1:1,2013-01-02T17:49:00Z,28.8850,-90.0250,10.0,10.4,8.0,12.6,'11111222,11111222,11111222' 
LOOP,urn:ioos:station:wmo:lopl1:1,2013-01-02T18:04:00Z,28.8850,-90.0250,10.0,10.3,14.0,11.8,'11111222,11111222,11111222' 
LOOP,urn:ioos:station:wmo:lopl1:1,2013-01-02T18:19:00Z,28.8850,-90.0250,10.0,10.6,14.0,12.6,'11111222,11111222,11111222' 
LOOP,urn:ioos:station:wmo:lopl1:1,2013-01-02T18:39:00Z,28.8850,-90.0250,10.0,10.3,18.0,11.7,'11111222,11111222,11111222' 
LOOP,urn:ioos:station:wmo:lopl1:1,2013-01-02T18:54:00Z,28.8850,-90.0250,10.0,9.8,18.0,11.5,'11111222,11111222,11111222' 
LOOP,urn:ioos:station:wmo:lopl1:1,2013-01-02T19:09:00Z,28.8850,-90.0250,10.0,9.7,12.0,11.4,'11111222,11111222,11111222' 
LOOP,urn:ioos:station:wmo:lopl1:1,2013-01-02T19:24:00Z,28.8850,-90.0250,10.0,10.8,15.0,12.0,'11111222,11111222,11111222' 
LOOP,urn:ioos:station:wmo:lopl1:1,2013-01-02T19:39:00Z,28.8850,-90.0250,10.0,10.2,10.0,12.0,'11111222,11111222,11111222' 
LOOP,urn:ioos:station:wmo:lopl1:1,2013-01-02T19:54:00Z,28.8850,-90.0250,10.0,10.0,13.0,11.5,'11111222,11111222,11111222' 
LOOP,urn:ioos:station:wmo:lopl1:1,2013-01-02T20:09:00Z,28.8850,-90.0250,10.0,9.8,16.0,11.1,'11111222,11111222,11111222' 
LOOP,urn:ioos:station:wmo:lopl1:1,2013-01-02T20:24:00Z,28.8850,-90.0250,10.0,10.5,12.0,12.3,'11111222,11111222,11111222' 
LOOP,urn:ioos:station:wmo:lopl1:1,2013-01-02T20:39:00Z,28.8850,-90.0250,10.0,10.5,358.0,11.9,'11111222,11111222,11111222' 
LOOP,urn:ioos:station:wmo:lopl1:1,2013-01-02T20:54:00Z,28.8850,-90.0250,10.0,10.6,351.0,13.1,'11111222,11111222,11111222' 
LOOP,urn:ioos:station:wmo:lopl1:1,2013-01-02T21:09:00Z,28.8850,-90.0250,10.0,10.7,349.0,14.5,'11111222,11111222,11111222' 
LOOP,urn:ioos:station:wmo:lopl1:1,2013-01-02T21:24:00Z,28.8850,-90.0250,10.0,10.9,349.0,14.5,'11111222,11111222,11111222' 
LOOP,urn:ioos:station:wmo:lopl1:1,2013-01-02T21:39:00Z,28.8850,-90.0250,10.0,10.5,348.0,13.7,'11111222,11111222,11111222' 
LOOP,urn:ioos:station:wmo:lopl1:1,2013-01-02T21:54:00Z,28.8850,-90.0250,10.0,8.8,344.0,12.3,'11111222,11111222,11111222' 
LOOP,urn:ioos:station:wmo:lopl1:1,2013-01-02T22:09:00Z,28.8850,-90.0250,10.0,9.9,351.0,12.9,'11111222,11111222,11111222' 
LOOP,urn:ioos:station:wmo:lopl1:1,2013-01-02T22:24:00Z,28.8850,-90.0250,10.0,10.3,352.0,12.6,'11111222,11111222,11111222' 
LOOP,urn:ioos:station:wmo:lopl1:1,2013-01-02T22:39:00Z,28.8850,-90.0250,10.0,11.1,7.0,13.1,'11111222,11111222,11111222' 
LOOP,urn:ioos:station:wmo:lopl1:1,2013-01-02T22:54:00Z,28.8850,-90.0250,10.0,11.9,8.0,13.8,'11111222,11111222,11111222' 
LOOP,urn:ioos:station:wmo:lopl1:1,2013-01-02T23:09:00Z,28.8850,-90.0250,10.0,11.9,1.0,14.3,'11111222,11111222,11111222' 
LOOP,urn:ioos:station:wmo:lopl1:1,2013-01-02T23:29:00Z,28.8850,-90.0250,10.0,11.6,4.0,13.9,'11111222,11111222,11111222' 
LOOP,urn:ioos:station:wmo:lopl1:1,2013-01-02T23:49:00Z,28.8850,-90.0250,10.0,12.7,0.0,14.9,'11111222,11111222,11111222' 
LOOP,urn:ioos:station:wmo:lopl1:1,2013-01-03T00:04:00Z,28.8850,-90.0250,10.0,12.9,5.0,15.6,'11111222,11111222,11111222' 
LOOP,urn:ioos:station:wmo:lopl1:1,2013-01-03T00:19:00Z,28.8850,-90.0250,10.0,11.3,6.0,13.5,'11111222,11111222,11111222' 
LOOP,urn:ioos:station:wmo:lopl1:1,2013-01-03T00:34:00Z,28.8850,-90.0250,10.0,10.4,6.0,12.1,'11111222,11111222,11111222' 
LOOP,urn:ioos:station:wmo:lopl1:1,2013-01-03T00:49:00Z,28.8850,-90.0250,10.0,9.1,358.0,10.3,'11111222,11111222,11111222' 
LOOP,urn:ioos:station:wmo:lopl1:1,2013-01-03T01:04:00Z,28.8850,-90.0250,10.0,10.9,0.0,13.1,'11111222,11111222,11111222' 
LOOP,urn:ioos:station:wmo:lopl1:1,2013-01-03T01:19:00Z,28.8850,-90.0250,10.0,10.6,5.0,12.5,'11111222,11111222,11111222' 
LOOP,urn:ioos:station:wmo:lopl1:1,2013-01-03T01:34:00Z,28.8850,-90.0250,10.0,10.0,356.0,12.8,'11111222,11111222,11111222' 
LOOP,urn:ioos:station:wmo:lopl1:1,2013-01-03T01:49:00Z,28.8850,-90.0250,10.0,11.6,4.0,14.4,'11111222,11111222,11111222' 
LOOP,urn:ioos:station:wmo:lopl1:1,2013-01-03T02:04:00Z,28.8850,-90.0250,10.0,12.0,358.0,14.6,'11111222,11111222,11111222' 
LOOP,urn:ioos:station:wmo:lopl1:1,2013-01-03T02:19:00Z,28.8850,-90.0250,10.0,12.0,359.0,14.2,'11111222,11111222,11111222' 